STARLINK-11365, 62886

Orbit data source: Space-Track

STARLINK-11365, 62886 is a payload satellite owned by SpaceX/Seattle (US) in LEO that was launched on Tue, 04 Feb 2025 UTC via an FALCON 9 launch vehicle from the Air Force Eastern Test Range (AFETR). Payload-class satellites include a variety of spacecraft equipped with specific instruments for various scientific and technological missions. These include communications satellites like Starlink; space stations such as the ISS; scientific satellites like the Hubble; Earth observation satellites from companies like Planet Labs, Umbra, and HawkEye 360; GPS; miniature CubeSats for education and research; and military/defense satellites.

Loading next visibility...
Identifier
62886, 2025-024H
Orbit
LEO
Country
Flag of USUS
Related business
Manufacturer
SpaceX/Seattle
Mission
Operational Commercial Communications
Bus & Motor
STARLINK V2MD, Unknown motor
Mass
960 kg wet, ~910 kg dry
Launch date (UTC)
Icon of a cake. It is the launch day of the satellite!2025-02-04 (1 year ago)
Launch vehicle
FALCON 9
Launch site
Air Force Eastern Test Range (AFETR)
Object type
Payload
Rocket body
Debris
Shape & HBR
Box + 2 Pan, 18.1 m
Radar Cross Section
36.964 m², Large (>1 m²)

Expand to show TLE details & history
Last TLE update: 1 day ago

TLE from 1 day ago
0 STARLINK-11365
1 62886U 25024H   26034.69592927  .00345655  00000-0  25777-2 0  9995
2 62886  42.9998  26.0564 0000493  23.3743 336.7147 15.70922240 58123
Epoch: 2026-02-03T16:42Z
TLE epoch observation values (Epoch: 2026-02-03T16:42:08.288Z)
Latitude
-0.00004°
Longitude
1.64866°
Altitude
355.726 km
Speed
7.698 km/s
True Right ascension
01h 44m 13s
True Declination
0° 00' 00"
Sunlit
Object was in daylight at epoch
Visualization orbit readout
Latitude
Unknown
Longitude
Unknown
Altitude
Unknown
Speed
Unknown
Apparent Right ascension
Unknown
Apparent Declination
Unknown
Sunlit
N/A
Visualization observer readout
Local Sidereal Time
20:15:30
Azimuth
Unknown
Elevation
Unknown
Doppler factor
Unknown
Orbital elements
Apogee altitude
358.574 km
Perigee altitude
357.91 km
Semi-major axis
6,736.379 km
Eccentricity
0.00005
Inclination
42.9998°
RAAN
26.0564°
Arg. of periapsis
23.3743°
True anomaly
336.71247°
Mean anomaly
336.7147°
Eccentric anomaly
336.71358°
Mean motion
3.92558 °/min
Orbital period
91.71 mins
BSTAR
0.0025777
Loading maneuver chart data...
Computing Atmospheric mass density...
Loading historical data...
Loading historical data...
Loading historical data...
Loading historical data...
Loading historical data...
Loading historical data...
Loading historical data...

Documentation

Showing up to 5 results
|